{"data":{"norad_id":57408,"epoch":"2026-09-20T07:03:12.691296Z","epoch_age_seconds":142101,"freshness":"FRESH","line1":"1 57408U 23102E   26263.29389689  .00029883  00000+0  94046-3 0  9990","line2":"2 57408  43.0020 228.5903 0004896 147.6237 212.4918 15.32383995176011","mean_motion":15.32383995,"eccentricity":0.0004896,"inclination_deg":43.002,"raan_deg":228.5903,"arg_perigee_deg":147.6237,"mean_anomaly_deg":212.4918,"bstar":0.00094046,"rev_number":17601,"period_min":93.971224229603,"perigee_km":465.34958790673,"apogee_km":472.05401245987,"semimajor_km":6846.8388001833,"source":"CELESTRAK","updated_at":"2026-09-21T09:00:33.623292Z"}}